CPA780 WARR-VHHH

Flight info

Callsign CPA780
Flight time N/A
Altitude 41000
Route RAMPY W31 BDM DCT ELANG R223 BRU L649 LAXOR M772 DULOP Q1 CARSO V551 BETTY
Aircraft A333/H-SDE3GHIJ2J3J5M1RVWXY/LB2D1

Departure

Time N/A
Airport Juanda International Airport (WARR)

Arrival

Time 2026-05-05 12:13
Airport Hong Kong International Airport (VHHH)
Time Latitude Longitude Altitude Speed Heading
2026-05-05 12:00 21.91009 114.15853 7773 ft 280 kts 296°
2026-05-05 12:01 21.91950 114.14018 7540 ft 277 kts 296°
2026-05-05 12:01 21.92872 114.12218 7311 ft 278 kts 296°
2026-05-05 12:01 21.93806 114.10399 7110 ft 277 kts 297°
2026-05-05 12:01 21.94743 114.08579 6885 ft 278 kts 297°
2026-05-05 12:02 21.95684 114.06753 6663 ft 277 kts 297°
2026-05-05 12:02 21.96621 114.04939 6450 ft 277 kts 296°
2026-05-05 12:02 21.97558 114.03125 6220 ft 276 kts 296°
2026-05-05 12:02 21.98484 114.01330 6001 ft 276 kts 296°
2026-05-05 12:03 21.99419 113.99516 5788 ft 276 kts 297°
2026-05-05 12:03 22.00354 113.97704 5556 ft 275 kts 296°
2026-05-05 12:03 22.01277 113.95915 5349 ft 275 kts 296°
2026-05-05 12:03 22.02204 113.94117 5135 ft 273 kts 296°
2026-05-05 12:04 22.03129 113.92322 4916 ft 273 kts 296°
2026-05-05 12:04 22.04040 113.90550 4703 ft 273 kts 296°
2026-05-05 12:04 22.04962 113.88760 4480 ft 272 kts 297°
2026-05-05 12:04 22.05887 113.86961 4254 ft 273 kts 297°
2026-05-05 12:05 22.06798 113.85192 4064 ft 274 kts 297°
2026-05-05 12:05 22.07724 113.83391 3820 ft 274 kts 297°
2026-05-05 12:05 22.08646 113.81598 3608 ft 273 kts 297°
2026-05-05 12:05 22.09580 113.79798 3388 ft 274 kts 299°
2026-05-05 12:06 22.10782 113.78230 3202 ft 268 kts 321°
2026-05-05 12:06 22.12412 113.77418 3032 ft 258 kts 348°
2026-05-05 12:06 22.14162 113.77145 2823 ft 250 kts 356°
2026-05-05 12:06 22.15881 113.76983 2625 ft 244 kts 358°
2026-05-05 12:07 22.17534 113.76836 2426 ft 238 kts 358°
2026-05-05 12:07 22.19171 113.76685 2245 ft 233 kts 358°
2026-05-05 12:07 22.20767 113.76532 2047 ft 228 kts 358°
2026-05-05 12:07 22.22331 113.76379 1889 ft 222 kts 358°
2026-05-05 12:08 22.23853 113.76272 1735 ft 214 kts
2026-05-05 12:08 22.24788 113.76525 1639 ft 206 kts 31°
2026-05-05 12:08 22.25870 113.77999 1617 ft 180 kts 71°
2026-05-05 12:08 22.26208 113.79198 1609 ft 154 kts 74°
2026-05-05 12:09 22.26415 113.79893 1604 ft 138 kts 72°
2026-05-05 12:09 22.26707 113.80784 1607 ft 119 kts 72°
2026-05-05 12:09 22.27064 113.81879 1578 ft 116 kts 73°
2026-05-05 12:09 22.27242 113.82432 1475 ft 117 kts 73°
2026-05-05 12:10 22.27602 113.83546 1259 ft 117 kts 73°
2026-05-05 12:10 22.27779 113.84095 1147 ft 117 kts 72°
2026-05-05 12:10 22.28048 113.84927 1003 ft 116 kts 73°
2026-05-05 12:10 22.28314 113.85751 838 ft 115 kts 71°
2026-05-05 12:11 22.28579 113.86568 693 ft 116 kts 72°
2026-05-05 12:11 22.28837 113.87396 569 ft 117 kts 72°
2026-05-05 12:11 22.29106 113.88224 395 ft 115 kts 70°
2026-05-05 12:11 22.29376 113.89024 257 ft 114 kts 71°
2026-05-05 12:12 22.29636 113.89827 111 ft 113 kts 71°
2026-05-05 12:12 22.29885 113.90605 41 ft 101 kts 72°
2026-05-05 12:12 22.30083 113.91226 42 ft 77 kts 71°
2026-05-05 12:12 22.30242 113.91722 40 ft 63 kts 70°
2026-05-05 12:13 22.30374 113.92134 43 ft 47 kts 70°
2026-05-05 12:13 22.30524 113.92364 42 ft 23 kts 41°
2026-05-05 12:13 22.30669 113.92500 41 ft 37 kts 41°
2026-05-05 12:13 22.30859 113.92685 41 ft 32 kts 42°
2026-05-05 12:14 22.30999 113.92824 41 ft 18 kts 65°
2026-05-05 12:14 22.30997 113.92898 41 ft 0 kts 113°